Location: Newark
(48.7936°N, 6.0014°E)
Time: 06:09:48
(UTC+00:00)

N. Korean satellite - Visible Passes

Search period start: 07 December 2019 00:00
Search period end: 17 December 2019 00:00
Orbit: 456 x 506 km, 97.2° (Epoch: 06 December)

Date Brightness Start Highest point End Pass type
(mag) Time Alt. Az. Time Alt. Az. Time Alt. Az.
07 Dec 9.2 04:44:56 10° NE 04:47:42 21° E 04:50:25 10° SE visible
07 Dec 7.3 06:17:58 10° N 06:21:10 31° WNW 06:24:18 10° SW visible
07 Dec 7.8 16:56:27 10° S 17:00:03 46° W 17:03:39 10° NNW visible
08 Dec 10.1 04:20:58 10° ENE 04:22:01 11° E 04:23:05 10° ESE visible
08 Dec 6.5 05:52:18 10° N 05:55:50 60° WNW 05:59:17 10° SSW visible
08 Dec 6.6 16:30:53 10° SSE 16:34:35 88° ENE 16:38:19 10° NNW visible
09 Dec 6.9 05:26:51 10° NNE 05:30:24 65° E 05:33:52 10° S visible
09 Dec 9.8 17:40:27 10° SW 17:42:50 16° W 17:45:13 10° NW visible
10 Dec 8.4 05:01:39 10° NNE 05:04:53 32° E 05:08:02 10° SSE visible
10 Dec 7.8 06:35:25 10° NNW 06:38:06 20° WNW 06:40:46 10° WSW visible
10 Dec 8.8 17:13:56 10° SSW 17:17:13 29° W 17:20:30 10° NNW visible
11 Dec 9.5 04:36:53 10° NE 04:39:16 17° E 04:41:36 10° SE visible
11 Dec 7.0 06:09:32 10° N 06:12:50 37° WNW 06:16:04 10° SW visible
11 Dec 7.3 16:48:02 10° S 16:51:41 58° W 16:55:20 10° NNW visible
12 Dec 6.4 05:43:55 10° N 05:47:28 76° WNW 05:50:56 10° SSW visible
12 Dec 6.6 16:22:33 10° SSE 16:26:15 71° ENE 16:29:56 10° N visible
12 Dec 10.3 17:59:20 10° W 18:00:05 10° W 18:00:49 10° WNW visible
13 Dec 7.4 05:18:32 10° NNE 05:22:00 51° E 05:25:23 10° S visible
13 Dec 9.6 17:31:40 10° SW 17:34:24 19° W 17:37:08 10° NW visible
14 Dec 8.8 04:53:27 10° NE 04:56:26 25° E 04:59:23 10° SSE visible
14 Dec 7.6 06:26:51 10° NNW 06:29:46 24° WNW 06:32:38 10° WSW visible
14 Dec 8.4 17:05:23 10° SSW 17:08:48 36° W 17:12:13 10° NNW visible
15 Dec 9.8 04:28:56 10° ENE 04:30:46 14° E 04:32:36 10° ESE visible
15 Dec 6.7 06:01:04 10° N 06:04:27 46° WNW 06:07:47 10° SW visible
15 Dec 6.9 16:39:37 10° S 16:43:18 72° WSW 16:46:58 10° NNW visible
16 Dec 6.5 05:35:31 10° NNE 05:39:03 85° ESE 05:42:30 10° SSW visible
16 Dec 6.7 16:14:16 10° SSE 16:17:53 56° ENE 16:21:28 10° N visible
16 Dec 10.0 17:49:54 10° WSW 17:51:36 13° W 17:53:19 10° WNW visible
